Location: Newark
(46.7636°N, 1.8358°W)
Time: 00:08:25
(UTC+00:00)

Vanguard 1 Rocket - Pass Details

Date: 27 October 2019
Orbit: 651 x 4226 km, 34.3° (Epoch: 19 November)

Event Time Altitude Azimuth Distance (km) Brightness Sun altitude
Rises 09:36:06 0° 237° (WSW) 4,651 11.0 23.2°
Reaches altitude 10° 09:38:44 10° 231° (SW) 4,010 10.8 23.5°
Maximum altitude 09:49:33 48° 161° (SSE) 3,188 11.6 24.5°
Drops below altitude 10° 10:09:09 10° 97° (E) 6,976 12.5 26.2°
Sets 10:15:36 0° 93° (E) 8,297 12.7 26.7°
